Tracking 35048 objects as of 19-Aug-2026
HD Live streaming from Space Station
objects crossing your sky now

KINEIS-3C

Track KINEIS-3C now!
10-day predictions
KINEIS-3C is classified as:


NORAD ID: 61220
Int'l Code: 2024-171A
Launch date: September 20, 2024
Source: France (FR)
Launch site: Rocket Lab Launch Complex (RLLC)

Uplink (MHz):
Downlink (MHz): 400.662
Beacon (MHz):
Mode: FM
Call sign:
Status: Active

Your satellite tracking list
Your tracking list is empty




NASA's NSSDC Master Catalog

Two Line Element Set (TLE):
1 61220U 24172A   26230.73308238  .00001325  00000-0  21756-3 0  9999
2 61220  98.0421 319.9659 0000766  30.7973 329.3279 14.72302350102271
Source of the keplerian elements: AFSPC